IRIDIUM 2 [-]

Last updated on Wed Jun 28 2023 00:03:02 GMT+0000 (Coordinated Universal Time)

1 25527U 98066A 23177.92642007 .00023226 00000+0 67458-3 0 9997 2 25527 85.5228 165.8628 0003771 221.7168 138.3795 15.35353670352176
UTC large
Height (km)
Speed (km/s)
/
Latitude / Longitude
Inclination (degrees)
Orbital Period (minutes)
Azimuth
Elevation
Range (km)
Doppler Factor

Next 0 passes for location: London (51.5072 / 0.1276)

Sorry there are no passes over London.